Location: Cheching
(60.0667°N, 164.2167°W)
Time: 19:47:58
(UTC+00:00)

DX 1 - Pass Details

Date: 26 January 2021
Orbit: 618 x 631 km, 98.5° (Epoch: 26 February)

Event Time Altitude Azimuth Distance (km) Brightness Sun altitude
Exits shadow 05:36:25 29° 139° (SE) 1,138 ? -19.4°
Drops below altitude 10° 05:39:01 10° 167° (SSE) 1,985 ? -19.8°
Sets 05:41:20 0° 175° (S) 2,886 ? -20.0°
